SWA2891 KLAX-KSFO

Flight info

Callsign SWA2891
Flight time 0h 53m
Altitude 38000
Route SUMMR2 STOKD SERFR SERFR4
Aircraft B738/M-VGDW/C

Departure

Time 2026-04-22 01:32
Airport Los Angeles International Airport (KLAX)

Arrival

Time 2026-04-22 02:26
Airport San Francisco International Airport (KSFO)
Time Latitude Longitude Altitude Speed Heading
2026-04-22 01:14 33.94767 -118.40070 116 ft 0 kts 243°
2026-04-22 01:24 33.94769 -118.40066 116 ft 2 kts 244°
2026-04-22 01:24 33.94775 -118.40050 116 ft 2 kts 246°
2026-04-22 01:24 33.94776 -118.40034 116 ft 2 kts 293°
2026-04-22 01:25 33.94766 -118.40019 116 ft 2 kts 332°
2026-04-22 01:25 33.94756 -118.40015 116 ft 0 kts
2026-04-22 01:25 33.94749 -118.40016 116 ft 1 kts
2026-04-22 01:25 33.94747 -118.40016 115 ft 0 kts
2026-04-22 01:27 33.94748 -118.40016 115 ft 0 kts
2026-04-22 01:28 33.94749 -118.40016 115 ft 0 kts
2026-04-22 01:28 33.94785 -118.40014 115 ft 8 kts
2026-04-22 01:28 33.94844 -118.40054 116 ft 13 kts 301°
2026-04-22 01:29 33.94901 -118.40081 116 ft 8 kts 18°
2026-04-22 01:29 33.94929 -118.40048 116 ft 4 kts 82°
2026-04-22 01:29 33.94933 -118.39981 115 ft 11 kts 81°
2026-04-22 01:29 33.94946 -118.39941 115 ft 1 kts 46°
2026-04-22 01:30 33.94947 -118.39940 115 ft 0 kts 43°
2026-04-22 01:31 33.94955 -118.39933 114 ft 7 kts 30°
2026-04-22 01:31 33.95034 -118.39935 114 ft 8 kts 321°
2026-04-22 01:31 33.95028 -118.40083 116 ft 48 kts 262°
2026-04-22 01:31 33.94947 -118.40871 125 ft 140 kts 263°
2026-04-22 01:32 33.94800 -118.42200 555 ft 184 kts 262°
2026-04-22 01:32 33.94721 -118.43682 1872 ft 175 kts 271°
2026-04-22 01:32 33.94671 -118.45001 2824 ft 168 kts 261°
2026-04-22 01:32 33.94431 -118.46404 3390 ft 186 kts 261°
2026-04-22 01:33 33.94285 -118.48006 3899 ft 205 kts 268°
2026-04-22 01:33 33.94256 -118.49725 4390 ft 211 kts 269°
2026-04-22 01:33 33.94206 -118.51448 4884 ft 211 kts 266°
2026-04-22 01:33 33.94083 -118.53185 5451 ft 212 kts 264°
2026-04-22 01:34 33.93935 -118.54955 6019 ft 217 kts 264°
2026-04-22 01:34 33.93779 -118.56782 6583 ft 234 kts 264°
2026-04-22 01:34 33.93614 -118.58800 7156 ft 248 kts 264°
2026-04-22 01:34 33.93450 -118.60873 7716 ft 255 kts 264°
2026-04-22 01:35 33.93285 -118.62991 8290 ft 261 kts 264°
2026-04-22 01:35 33.93115 -118.65163 8894 ft 265 kts 263°
2026-04-22 01:35 33.92942 -118.67358 9524 ft 265 kts 263°
2026-04-22 01:35 33.92773 -118.69531 10134 ft 268 kts 263°
2026-04-22 01:36 33.92593 -118.71839 10807 ft 283 kts 263°
2026-04-22 01:36 33.92408 -118.74202 11538 ft 294 kts 263°
2026-04-22 01:36 33.92216 -118.76656 12263 ft 304 kts 263°
2026-04-22 01:36 33.92012 -118.79240 12995 ft 314 kts 263°
2026-04-22 01:37 33.91805 -118.81853 13749 ft 323 kts 263°
2026-04-22 01:37 33.91690 -118.84570 14481 ft 331 kts 267°
2026-04-22 01:37 33.91722 -118.87350 15221 ft 339 kts 270°
2026-04-22 01:37 33.91827 -118.90179 15926 ft 346 kts 271°
2026-04-22 01:38 33.91950 -118.93103 16657 ft 352 kts 271°
2026-04-22 01:38 33.92062 -118.96015 17382 ft 357 kts 270°
2026-04-22 01:38 33.92260 -118.99007 18109 ft 363 kts 275°
2026-04-22 01:38 33.92804 -119.01981 18842 ft 371 kts 284°
2026-04-22 01:39 33.93841 -119.04836 19582 ft 379 kts 292°
2026-04-22 01:39 33.95159 -119.07610 20335 ft 385 kts 295°
2026-04-22 01:39 33.96583 -119.10357 21094 ft 388 kts 297°
2026-04-22 01:39 33.98017 -119.13055 21841 ft 390 kts 297°
2026-04-22 01:40 33.99558 -119.15778 22605 ft 395 kts 301°
2026-04-22 01:40 34.01352 -119.18280 23361 ft 401 kts 307°
2026-04-22 01:40 34.03384 -119.20560 24129 ft 406 kts 312°
2026-04-22 01:40 34.05616 -119.22701 24913 ft 409 kts 315°
2026-04-22 01:41 34.07897 -119.24706 25687 ft 410 kts 316°
2026-04-22 01:41 34.10230 -119.26681 26471 ft 409 kts 316°
2026-04-22 01:41 34.12537 -119.28617 27247 ft 406 kts 316°
2026-04-22 01:41 34.14835 -119.30554 28028 ft 403 kts 316°
2026-04-22 01:42 34.17105 -119.32480 28813 ft 399 kts 315°
2026-04-22 01:42 34.19336 -119.34382 29594 ft 394 kts 315°
2026-04-22 01:42 34.21549 -119.36276 30358 ft 388 kts 314°
2026-04-22 01:42 34.23738 -119.38154 31106 ft 382 kts 314°
2026-04-22 01:43 34.25859 -119.39977 31847 ft 375 kts 314°
2026-04-22 01:43 34.27934 -119.41766 32485 ft 370 kts 314°
2026-04-22 01:43 34.30016 -119.43572 33039 ft 366 kts 314°
2026-04-22 01:43 34.32076 -119.45359 33587 ft 363 kts 314°
2026-04-22 01:44 34.34095 -119.47111 34108 ft 359 kts 314°
2026-04-22 01:44 34.36098 -119.48846 34605 ft 354 kts 314°
2026-04-22 01:44 34.38083 -119.50566 35096 ft 349 kts 314°
2026-04-22 01:44 34.40045 -119.52284 35492 ft 344 kts 312°
2026-04-22 01:45 34.41841 -119.54092 35809 ft 338 kts 308°
2026-04-22 01:45 34.43527 -119.56055 36192 ft 334 kts 305°
2026-04-22 01:45 34.45114 -119.58031 36580 ft 331 kts 304°
2026-04-22 01:45 34.46711 -119.60043 36986 ft 329 kts 304°
2026-04-22 01:46 34.48296 -119.62021 37382 ft 327 kts 305°
2026-04-22 01:46 34.49874 -119.63972 37740 ft 324 kts 305°
2026-04-22 01:46 34.51442 -119.65904 38036 ft 323 kts 305°
2026-04-22 01:46 34.53027 -119.67866 38062 ft 328 kts 305°
2026-04-22 01:47 34.56254 -119.71869 38083 ft 339 kts 305°
2026-04-22 01:47 34.59589 -119.75995 38075 ft 351 kts 305°
2026-04-22 01:48 34.63047 -119.80270 38074 ft 362 kts 305°
2026-04-22 01:48 34.66642 -119.84719 38084 ft 373 kts 306°
2026-04-22 01:49 34.70301 -119.89251 38081 ft 385 kts 306°
2026-04-22 01:49 34.74109 -119.93977 38076 ft 396 kts 306°
2026-04-22 01:50 34.78006 -119.98816 38068 ft 406 kts 307°
2026-04-22 01:50 34.81963 -120.03729 38058 ft 410 kts 306°
2026-04-22 01:51 34.85928 -120.08650 38060 ft 409 kts 306°
2026-04-22 01:51 34.89920 -120.13632 38063 ft 413 kts 306°
2026-04-22 01:52 34.93896 -120.18598 38062 ft 410 kts 307°
2026-04-22 01:52 34.97874 -120.23573 38066 ft 411 kts 306°
2026-04-22 01:53 35.01846 -120.28554 38073 ft 410 kts 307°
2026-04-22 01:53 35.05820 -120.33534 38062 ft 409 kts 306°
2026-04-22 01:54 35.09770 -120.38480 38065 ft 412 kts 307°
2026-04-22 01:54 35.13974 -120.43295 38061 ft 415 kts 309°
2026-04-22 01:55 35.18249 -120.47988 38069 ft 414 kts 310°
2026-04-22 01:55 35.22499 -120.52679 38060 ft 415 kts 309°
2026-04-22 01:56 35.26762 -120.57436 38062 ft 416 kts 309°
2026-04-22 01:56 35.31002 -120.62194 38065 ft 414 kts 309°
2026-04-22 01:57 35.35229 -120.66955 38054 ft 416 kts 309°
2026-04-22 01:57 35.39467 -120.71738 38050 ft 415 kts 309°
2026-04-22 01:58 35.43671 -120.76493 38054 ft 415 kts 309°
2026-04-22 01:58 35.47929 -120.81297 38051 ft 415 kts 309°
2026-04-22 01:59 35.52418 -120.85787 38048 ft 423 kts 314°
2026-04-22 01:59 35.57138 -120.90095 38043 ft 423 kts 315°
2026-04-22 02:00 35.61837 -120.94368 38034 ft 424 kts 314°
2026-04-22 02:00 35.66557 -120.98714 38036 ft 423 kts 314°
2026-04-22 02:01 35.71255 -121.03069 38042 ft 425 kts 314°
2026-04-22 02:01 35.75894 -121.07386 37724 ft 419 kts 314°
2026-04-22 02:02 35.78229 -121.09566 37215 ft 418 kts 314°
2026-04-22 02:02 35.80511 -121.11698 36717 ft 414 kts 314°
2026-04-22 02:02 35.82788 -121.13824 36183 ft 411 kts 314°
2026-04-22 02:02 35.85056 -121.15946 35627 ft 408 kts 314°
2026-04-22 02:03 35.87283 -121.18032 35139 ft 407 kts 314°
2026-04-22 02:03 35.89534 -121.20144 34625 ft 406 kts 314°
2026-04-22 02:03 35.91757 -121.22237 34114 ft 407 kts 313°
2026-04-22 02:03 35.94024 -121.24374 33572 ft 409 kts 313°
2026-04-22 02:04 35.98548 -121.28637 32423 ft 413 kts 314°
2026-04-22 02:04 36.00801 -121.30757 31860 ft 412 kts 313°
2026-04-22 02:04 36.03077 -121.32899 31286 ft 412 kts 313°
2026-04-22 02:05 36.05347 -121.35036 30704 ft 413 kts 313°
2026-04-22 02:05 36.07663 -121.37151 30131 ft 415 kts 315°
2026-04-22 02:05 36.10080 -121.39163 29555 ft 419 kts 317°
2026-04-22 02:05 36.12538 -121.41087 28977 ft 422 kts 319°
2026-04-22 02:06 36.15031 -121.42986 28393 ft 422 kts 319°
2026-04-22 02:06 36.17525 -121.44885 27817 ft 424 kts 319°
2026-04-22 02:06 36.20004 -121.46785 27242 ft 425 kts 319°
2026-04-22 02:06 36.22499 -121.48711 26672 ft 425 kts 319°
2026-04-22 02:07 36.25005 -121.50653 26107 ft 427 kts 319°
2026-04-22 02:07 36.27531 -121.52618 25521 ft 427 kts 319°
2026-04-22 02:07 36.30027 -121.54565 24955 ft 425 kts 319°
2026-04-22 02:07 36.32510 -121.56503 24400 ft 419 kts 320°
2026-04-22 02:08 36.34936 -121.58395 23849 ft 414 kts 320°
2026-04-22 02:08 36.37358 -121.60289 23278 ft 412 kts 319°
2026-04-22 02:08 36.39767 -121.62182 22742 ft 411 kts 320°
2026-04-22 02:08 36.42190 -121.64089 22205 ft 412 kts 320°
2026-04-22 02:09 36.44619 -121.66003 21649 ft 409 kts 319°
2026-04-22 02:09 36.47005 -121.67882 21121 ft 408 kts 320°
2026-04-22 02:09 36.49372 -121.69749 20590 ft 407 kts 320°
2026-04-22 02:09 36.51760 -121.71634 20134 ft 408 kts 320°
2026-04-22 02:10 36.54182 -121.73547 19688 ft 407 kts 321°
2026-04-22 02:10 36.56524 -121.75394 19222 ft 398 kts 321°
2026-04-22 02:10 36.58852 -121.77228 18759 ft 389 kts 321°
2026-04-22 02:10 36.61107 -121.79012 18316 ft 382 kts 321°
2026-04-22 02:11 36.63323 -121.80771 17852 ft 378 kts 322°
2026-04-22 02:11 36.65523 -121.82522 17353 ft 375 kts 321°
2026-04-22 02:11 36.67695 -121.84254 16874 ft 374 kts 322°
2026-04-22 02:11 36.69902 -121.86011 16395 ft 373 kts 322°
2026-04-22 02:12 36.72096 -121.87714 16004 ft 372 kts 324°
2026-04-22 02:12 36.74349 -121.89207 15950 ft 372 kts 330°
2026-04-22 02:12 36.76824 -121.90327 15868 ft 385 kts 338°
2026-04-22 02:12 36.79430 -121.91178 15447 ft 390 kts 342°
2026-04-22 02:13 36.82085 -121.91882 14987 ft 383 kts 344°
2026-04-22 02:13 36.84669 -121.92516 14540 ft 379 kts 345°
2026-04-22 02:13 36.87212 -121.93149 14069 ft 374 kts 344°
2026-04-22 02:13 36.89772 -121.93810 13542 ft 369 kts 344°
2026-04-22 02:14 36.92236 -121.94472 13034 ft 365 kts 343°
2026-04-22 02:14 36.94721 -121.95157 12500 ft 361 kts 343°
2026-04-22 02:14 36.97111 -121.95907 11989 ft 355 kts 340°
2026-04-22 02:14 36.99467 -121.96802 11549 ft 348 kts 338°
2026-04-22 02:15 37.01733 -121.97733 11110 ft 342 kts 338°
2026-04-22 02:15 37.03975 -121.98666 10721 ft 336 kts 338°
2026-04-22 02:15 37.06163 -121.99557 10413 ft 327 kts 338°
2026-04-22 02:15 37.08303 -122.00410 10129 ft 320 kts 338°
2026-04-22 02:16 37.10380 -122.01228 9845 ft 312 kts 338°
2026-04-22 02:16 37.12454 -122.02037 9562 ft 305 kts 338°
2026-04-22 02:16 37.14452 -122.02817 9280 ft 299 kts 339°
2026-04-22 02:16 37.16420 -122.03587 9041 ft 291 kts 339°
2026-04-22 02:17 37.18309 -122.04328 8817 ft 285 kts 338°
2026-04-22 02:17 37.20203 -122.05072 8583 ft 278 kts 338°
2026-04-22 02:17 37.22022 -122.05788 8380 ft 272 kts 338°
2026-04-22 02:17 37.23806 -122.06489 8231 ft 266 kts 338°
2026-04-22 02:18 37.25575 -122.07185 8088 ft 267 kts 338°
2026-04-22 02:18 37.27358 -122.07886 8082 ft 268 kts 338°
2026-04-22 02:18 37.29158 -122.08596 7921 ft 272 kts 338°
2026-04-22 02:18 37.30944 -122.09301 7603 ft 271 kts 338°
2026-04-22 02:19 37.32757 -122.10014 7176 ft 270 kts 339°
2026-04-22 02:19 37.34528 -122.10712 6750 ft 268 kts 338°
2026-04-22 02:19 37.36301 -122.11410 6325 ft 267 kts 338°
2026-04-22 02:19 37.38054 -122.12090 5981 ft 263 kts 339°
2026-04-22 02:20 37.39813 -122.12709 5641 ft 259 kts 341°
2026-04-22 02:20 37.41537 -122.13286 5191 ft 260 kts 341°
2026-04-22 02:20 37.43293 -122.13877 4693 ft 262 kts 341°
2026-04-22 02:20 37.45038 -122.14471 4202 ft 264 kts 341°
2026-04-22 02:21 37.46795 -122.15075 3905 ft 256 kts 341°
2026-04-22 02:21 37.48510 -122.15664 3573 ft 252 kts 341°
2026-04-22 02:21 37.50177 -122.16241 3190 ft 251 kts 341°
2026-04-22 02:21 37.51815 -122.16810 3099 ft 236 kts 339°
2026-04-22 02:22 37.53255 -122.17631 3081 ft 217 kts 319°
2026-04-22 02:22 37.54184 -122.19038 2869 ft 210 kts 296°
2026-04-22 02:22 37.54797 -122.20693 2620 ft 204 kts 292°
2026-04-22 02:22 37.55414 -122.22254 2333 ft 198 kts 295°
2026-04-22 02:23 37.56056 -122.23762 2079 ft 192 kts 296°
2026-04-22 02:23 37.56672 -122.25201 1846 ft 181 kts 296°
2026-04-22 02:23 37.57253 -122.26577 1603 ft 176 kts 296°
2026-04-22 02:23 37.57834 -122.27961 1372 ft 182 kts 296°
2026-04-22 02:24 37.58427 -122.29359 1138 ft 179 kts 295°
2026-04-22 02:24 37.59012 -122.30739 910 ft 180 kts 295°
2026-04-22 02:24 37.59589 -122.32108 682 ft 182 kts 296°
2026-04-22 02:24 37.60190 -122.33504 647 ft 170 kts 295°
2026-04-22 02:25 37.60726 -122.34777 325 ft 156 kts 295°
2026-04-22 02:25 37.61206 -122.35921 72 ft 139 kts 295°
2026-04-22 02:25 37.61601 -122.36873 13 ft 101 kts 298°
2026-04-22 02:25 37.61854 -122.37466 21 ft 56 kts 298°
2026-04-22 02:26 37.61988 -122.37790 28 ft 22 kts 290°
2026-04-22 02:26 37.61959 -122.37942 31 ft 14 kts 231°
2026-04-22 02:26 37.61921 -122.37981 32 ft 10 kts 204°
2026-04-22 02:26 37.61856 -122.37985 32 ft 10 kts 163°
2026-04-22 02:27 37.61756 -122.37949 31 ft 15 kts 174°
2026-04-22 02:27 37.61660 -122.37969 32 ft 10 kts 216°
2026-04-22 02:27 37.61664 -122.38015 32 ft 4 kts 289°
2026-04-22 02:27 37.61678 -122.38054 32 ft 0 kts 296°